Terminal Aerodrome Forecast
Issued by NWS Wilmington, OH

Current Version | Previous Version | Graphics & Text | Print | Product List | Glossary On
Versions: 1 2 3 4 5 6 7 8 9 10 11 12 13 14 15 16 17 18 19 20 21 22 23 24
000
FTUS41 KILN 241000 AAD
TAFCVG
TAF AMD
KCVG 241004Z 2410/2512 00000KT P6SM BKN035 BKN200
      TEMPO 2410/2412 4SM BR
     FM241400 04006KT P6SM SCT040 BKN200
     FM250000 12004KT P6SM BKN200
     FM250600 VRB03KT 3SM BR BKN200=

USA.gov is the U.S. government's official web portal to all federal, state and local government web resources and services.